OK1PMP-6 Weather Reports


Display with metric or nautical units.
time (UTC)temp
F
wind
direction
speed
MPH
gust
MPH
rain 1hr
in
rain 24hr
in
rain mn
in
humidity
%
barometer
mb
20260506123352 74 284 0.0 6.0 0.00 0.11 0.02 47 1009.5
20260506121852 73 215 1.0 14.0 0.00 0.11 0.02 51 1010.1
20260506120354 71 258 2.0 8.0 0.00 0.11 0.02 53 1010.2
20260506114848 69 270 2.0 8.0 0.00 0.11 0.02 54 1010.2
20260506113349 72 282 2.0 10.0 0.00 0.11 0.02 52 1010.2
20260506111848 70 300 4.0 11.0 0.00 0.11 0.02 53 1010.0
20260506110348 70 259 0.0 13.0 0.00 0.11 0.02 54 1010.5
20260506104848 70 277 5.0 10.0 0.00 0.11 0.02 56 1010.4
20260506103349 68 240 5.0 9.0 0.00 0.11 0.02 59 1010.3
20260506101853 67 217 4.0 10.0 0.00 0.11 0.02 61 1010.5
20260506100348 68 210 3.0 9.0 0.00 0.11 0.02 61 1010.5
20260506094848 66 273 0.0 9.0 0.00 0.11 0.02 63 1010.3
20260506093348 68 248 4.0 15.0 0.00 0.11 0.02 62 1010.5
20260506091848 64 208 7.0 13.0 0.00 0.11 0.02 66 1010.7
20260506090349 65 252 3.0 11.0 0.00 0.11 0.02 66 1010.4
20260506084848 64 302 0.0 10.0 0.00 0.11 0.02 67 1010.4
20260506083352 64 279 2.0 14.0 0.00 0.11 0.02 70 1010.3
20260506081849 64 258 4.0 11.0 0.00 0.11 0.02 71 1010.4
20260506080411 63 187 4.0 10.0 0.00 0.11 0.02 72 1010.4
20260506073348 61 248 6.0 9.0 0.00 0.11 0.02 77 1010.2
20260506071848 61 298 4.0 11.0 0.00 0.11 0.02 75 1010.3
20260506070349 61 278 3.0 13.0 0.00 0.11 0.02 79 1010.1
20260506061851 56 211 0.0 8.0 0.00 0.11 0.02 87 1010.0
20260506060351 56 225 2.0 4.0 0.00 0.11 0.02 88 1010.3
20260506050409 52 136 0.0 2.0 0.00 0.11 0.02 98 1010.1
20260506044851 51 188 1.0 1.0 0.00 0.11 0.02 96 1010.0
20260506043348 51 189 0.0 1.0 0.00 0.11 0.02 96 1010.0
20260506041847 51 189 0.0 0.0 0.00 0.11 0.02 96 1009.6
20260506040348 51 189 0.0 0.0 0.00 0.11 0.02 95 1009.5
20260506034845 52 190 0.0 2.0 0.00 0.10 0.02 96 1009.2
20260506033344 52 203 0.0 1.0 0.00 0.10 0.02 96 1009.3
20260506031842 51 185 0.0 0.0 0.00 0.10 0.02 94 1009.2
20260506030337 51 185 0.0 1.0 0.00 0.10 0.02 94 1009.5
20260506024810 51 185 0.0 0.0 0.00 0.10 0.02 93 1009.4
20260506023309 52 185 0.0 0.0 0.00 0.10 0.02 93 1009.5
20260506021804 53 185 0.0 2.0 0.00 0.10 0.02 94 1009.4
20260506020303 53 185 2.0 8.0 0.00 0.10 0.02 95 1009.5
20260506014802 53 262 2.0 8.0 0.00 0.10 0.02 94 1009.8
20260506013302 53 233 0.0 4.0 0.00 0.10 0.02 93 1009.5
20260506011759 53 233 1.0 3.0 0.00 0.10 0.02 93 1009.4
20260506010259 53 198 0.0 2.0 0.00 0.10 0.02 93 1009.2
20260506004756 53 8 0.0 0.0 0.01 0.10 0.02 92 1009.1
20260506003312 53 8 0.0 8.0 0.01 0.11 0.02 93 1008.9
20260506001754 54 325 4.0 9.0 0.01 0.11 0.02 93 1009.0
20260506000324 54 333 1.0 3.0 0.01 0.11 0.02 92 1009.2
20260505234754 54 317 0.0 4.0 0.00 0.10 0.00 90 1009.4
20260505233301 55 29 1.0 4.0 0.00 0.10 0.00 88 1009.3
20260505231751 55 32 3.0 9.0 0.00 0.10 0.00 87 1009.6
20260505230254 56 325 1.0 10.0 0.00 0.10 0.00 86 1009.6
20260505224746 56 338 4.0 10.0 0.00 0.10 0.00 86 1009.5
20260505223443 57 323 3.0 11.0 0.00 0.10 0.00 84 1009.5
20260505221745 59 324 5.0 8.0 0.00 0.10 0.00 82 1009.2
20260505220949 59 280 2.0 6.0 0.00 0.10 0.00 82 1008.9
20260505220259 59 280 2.0 6.0 0.00 0.10 0.00 82 1008.9
20260505214740 59 282 2.0 8.0 0.00 0.10 0.10 85 1009.0
20260505213236 58 271 2.0 13.0 0.00 0.10 0.10 87 1008.7
20260505211736 58 225 2.0 6.0 0.00 0.10 0.10 86 1008.0
20260505210235 58 150 0.0 2.0 0.00 0.10 0.10 85 1007.4
20260505204732 59 150 1.0 4.0 0.00 0.10 0.10 86 1007.4
20260505203228 59 92 1.0 6.0 0.00 0.10 0.10 85 1007.3
20260505201724 58 92 2.0 7.0 0.00 0.10 0.10 85 1007.2
20260505200224 58 65 3.0 8.0 0.00 0.10 0.10 86 1007.1
20260505194719 58 343 4.0 7.0 0.00 0.10 0.10 87 1007.0
20260505193211 57 357 2.0 7.0 0.01 0.10 0.10 89 1007.1
20260505191839 57 52 1.0 4.0 0.02 0.10 0.10 90 1006.8
20260505190351 57 44 1.0 3.0 0.04 0.10 0.10 89 1007.0
20260505184659 58 41 1.0 6.0 0.05 0.10 0.10 88 1007.0
20260505183155 58 354 0.0 4.0 0.06 0.09 0.09 90 1007.7
20260505181653 58 323 0.0 3.0 0.06 0.08 0.08 85 1008.3
20260505180152 59 271 0.0 8.0 0.05 0.06 0.06 79 1008.8
20260505174656 60 253 7.0 16.0 0.04 0.05 0.05 78 1008.9
20260505173154 62 203 4.0 14.0 0.02 0.04 0.04 77 1008.6
20260505171645 64 213 6.0 11.0 0.00 0.02 0.02 70 1008.1
20260505170141 66 170 2.0 15.0 0.00 0.02 0.02 63 1008.0
20260505164654 71 160 4.0 13.0 0.00 0.01 0.01 47 1008.3
20260505163123 73 10 0.0 1.0 0.00 0.01 0.01 44 1007.6
20260505161623 73 10 0.0 3.0 0.00 0.01 0.01 40 1007.7
20260505160121 74 350 0.0 2.0 0.00 0.01 0.01 39 1007.5
20260505153121 80 130 0.0 4.0 0.00 0.01 0.01 33 1007.9
20260505151605 80 101 0.0 6.0 0.00 0.01 0.01 34 1007.8
20260505150105 81 199 2.0 7.0 0.00 0.01 0.01 34 1007.7
20260505124539 79 223 2.0 4.0 0.00 0.01 0.01 37 1009.5